Find Local Weather

World > North America > United States > Wisconsin

Eagle River, Wisconsin Regional Weather

Lat: 45.91N, Lon: 89.25W
Wx Zone: WIZ005
Feedback
Expires:201810231700;;620146
ASUS43 KMKX 231621
RWRWI 

WISCONSIN REGIONAL WEATHER ROUNDUP
NATIONAL WEATHER SERVICE MILWAUKEE/SULLIVAN WI
1100 AM CDT TUE OCT 23 2018

NOTE: "FAIR" INDICATES FEW OR NO CLOUDS BELOW 12,000 FEET WITH NO
SIGNIFICANT WEATHER AND/OR OBSTRUCTIONS TO VISIBILITY.


WIZ003>005-009-010-017-018-231700-
NORTH CENTRAL WISCONSIN
  
CITY           SKY/WX    TMP DP  RH WIND       PRES   REMARKS
MANITOWISH WTR PTSUNNY   38  33  84 N8        30.31R WCI  32          
ARBOR VITAE    CLOUDY    39  34  82 N9        30.31R WCI  33          
WOODRUFF       CLOUDY    39  34  82 N9        30.31R WCI  33          
RHINELANDER    CLOUDY    41  30  65 N8        30.30R                  
EAGLE RIVER    PTSUNNY   39  30  68 NW12      30.29R WCI  32          
LAND O LAKES   PTSUNNY   39  32  76 N12       30.30S WCI  32          
PHILLIPS       CLOUDY    38  32  77 N6        30.33R WCI  34          
TOMAHAWK       PTSUNNY   39  30  68 NW7       30.32R WCI  34          
MEDFORD        FAIR      42  29  59 N12       30.32R                  
MERRILL        CLOUDY    41  32  70 N8        30.33R                  
$$
 

SKY/WX - Weather  TMP - Temperature  DP - Dew Point  RH - Relative Humidity
WIND - Wind Direction/Speed PRES - Barometric Pressure